Weather History for KJYG - October, 2013

Change the Weather History Date:

Saturday, October 12, 2013

  Actual Average Record
Temperature  
Mean Temperature 52 °F -  
Max Temperature 64 °F 63 °F 88 °F (1975)
Min Temperature 39 °F 38 °F 17 °F (2012)
Degree Days  
Heating Degree Days 14    
Growing Degree Days 2 (Base 50)    
Moisture  
Dew Point 34 °F    
Average Humidity 53    
Maximum Humidity 76    
Minimum Humidity 21    
Precipitation  
Precipitation 0.00 in - - ()
Sea Level Pressure  
Sea Level Pressure 29.99 in    
Wind  
Wind Speed 11 mph (WSW)    
Max Wind Speed 26 mph    
Max Gust Speed 34 mph    
Visibility 10 miles    
Events      
Averages and records for this station are not official NWS values.
T = Trace of Precipitation, MM = Missing Value Source: NWS Daily Summary

Daily Weather History Graph

Daily Weather History Graph

Search for Another Location

Airport or City:

Trip Planner

Search our weather history database for the weather conditions in past years. The results will help you decide how hot, cold, wet, or windy it might be!

Date:

Astronomy

Oct. 12, 2013 Rise Set
Actual Time 7:29 AM CDT 6:39 PM CDT
Civil Twilight 7:00 AM CDT 7:08 PM CDT
Nautical Twilight 6:27 AM CDT 7:41 PM CDT
Astronomical Twilight 5:53 AM CDT 8:14 PM CDT
Moon 3:00 PM CDT (10/12) 12:21 AM CDT (10/12)
Length of Visible Light 12h 07m
Length of Day
11h 09m
First Quarter, 59% of the Moon is Illuminated
Oct 12
First Quarter
Oct 18
Full
Oct 26
Last Quarter
Nov 3
New
Nov 9
First Quarter

Hourly Weather History & Observations

Time (CDT) Temp. Windchill Dew Point Humidity Pressure Visibility Wind Dir Wind Speed Gust Speed Precip Events Conditions
12:14 AM 53.6 °F - 44.6 °F 72% 29.79 in 10.0 mi SW 9.2 mph - N/A   Clear
12:35 AM 51.8 °F - 42.8 °F 71% 29.79 in 10.0 mi SW 6.9 mph - N/A   Clear
12:55 AM 51.8 °F - 42.8 °F 71% 29.80 in 10.0 mi SSW 3.5 mph - N/A   Clear
1:14 AM 51.8 °F - 42.8 °F 71% 29.80 in 10.0 mi SSW 6.9 mph - N/A   Clear
1:35 AM 51.8 °F - 42.8 °F 71% 29.81 in 10.0 mi South 3.5 mph - N/A   Clear
1:55 AM 50.0 °F - 42.8 °F 76% 29.82 in 10.0 mi South 5.8 mph - N/A   Clear
2:14 AM 50.0 °F - 42.8 °F 76% 29.82 in 10.0 mi SSW 4.6 mph - N/A   Clear
2:35 AM 50.0 °F - 42.8 °F 76% 29.83 in 10.0 mi South 6.9 mph - N/A   Clear
2:55 AM 50.0 °F - 42.8 °F 76% 29.84 in 10.0 mi SSW 5.8 mph - N/A   Clear
3:15 AM 50.0 °F - 42.8 °F 76% 29.84 in 10.0 mi SW 8.1 mph - N/A   Clear
3:35 AM 48.2 °F - 41.0 °F 76% 29.83 in 10.0 mi SW 9.2 mph - N/A   Clear
3:54 AM 48.2 °F - 41.0 °F 76% 29.83 in 10.0 mi SW 8.1 mph - N/A   Clear
4:15 AM 48.2 °F - 41.0 °F 76% 29.85 in 10.0 mi SW 8.1 mph - N/A   Clear
4:34 AM 48.2 °F - 41.0 °F 76% 29.85 in 10.0 mi SSW 5.8 mph - N/A   Clear
4:55 AM 48.2 °F - 41.0 °F 76% 29.86 in 10.0 mi SW 9.2 mph - N/A   Clear
5:15 AM 48.2 °F - 41.0 °F 76% 29.86 in 10.0 mi SW 9.2 mph - N/A   Clear
5:34 AM 48.2 °F - 39.2 °F 71% 29.86 in 10.0 mi WSW 12.7 mph 16.1 mph N/A   Clear
5:55 AM 48.2 °F - 39.2 °F 71% 29.87 in 10.0 mi SW 12.7 mph 17.3 mph N/A   Clear
6:15 AM 48.2 °F - 39.2 °F 71% 29.87 in 10.0 mi SW 11.5 mph - N/A   Clear
6:35 AM 48.2 °F - 39.2 °F 71% 29.88 in 10.0 mi SW 11.5 mph 17.3 mph N/A   Clear
6:55 AM 46.4 °F 41.1 °F 39.2 °F 76% 29.89 in 10.0 mi SW 11.5 mph - N/A   Clear
7:15 AM 46.4 °F 41.1 °F 39.2 °F 76% 29.89 in 10.0 mi SW 11.5 mph - N/A   Clear
7:35 AM 46.4 °F 41.1 °F 39.2 °F 76% 29.90 in 10.0 mi SW 11.5 mph - N/A   Clear
7:55 AM 46.4 °F 41.5 °F 39.2 °F 76% 29.91 in 10.0 mi SW 10.4 mph - N/A   Clear
8:15 AM 48.2 °F - 39.2 °F 71% 29.91 in 10.0 mi SW 13.8 mph - N/A   Clear
8:35 AM 48.2 °F - 39.2 °F 71% 29.91 in 10.0 mi SW 13.8 mph 17.3 mph N/A   Clear
8:55 AM 50.0 °F - 37.4 °F 62% 29.93 in 10.0 mi SW 15.0 mph 20.7 mph N/A   Clear
9:15 AM 51.8 °F - 37.4 °F 58% 29.93 in 10.0 mi SW 17.3 mph 21.9 mph N/A   Clear
9:35 AM 51.8 °F - 37.4 °F 58% 29.94 in 10.0 mi WSW 18.4 mph 23.0 mph N/A   Clear
9:54 AM 53.6 °F - 37.4 °F 54% 29.94 in 10.0 mi WSW 20.7 mph 26.5 mph N/A   Clear
10:15 AM 55.4 °F - 37.4 °F 51% 29.95 in 10.0 mi WSW 16.1 mph 24.2 mph N/A   Clear
10:35 AM 55.4 °F - 37.4 °F 51% 29.96 in 10.0 mi WSW 18.4 mph 25.3 mph N/A   Clear
10:54 AM 57.2 °F - 37.4 °F 48% 29.96 in 10.0 mi SW 21.9 mph 26.5 mph N/A   Clear
11:15 AM 57.2 °F - 35.6 °F 44% 29.97 in 10.0 mi West 21.9 mph 26.5 mph N/A   Clear
11:35 AM 59.0 °F - 33.8 °F 39% 29.98 in 10.0 mi West 23.0 mph 28.8 mph N/A   Clear
11:54 AM 59.0 °F - 33.8 °F 39% 29.99 in 10.0 mi West 19.6 mph 29.9 mph N/A   Scattered Clouds
12:15 PM 57.2 °F - 33.8 °F 41% 30.00 in 10.0 mi West 18.4 mph 32.2 mph N/A   Mostly Cloudy
12:35 PM 60.8 °F - 33.8 °F 36% 30.00 in 10.0 mi West 25.3 mph 29.9 mph N/A   Mostly Cloudy
12:54 PM 60.8 °F - 33.8 °F 36% 30.00 in 10.0 mi WSW 26.5 mph 34.5 mph N/A   Mostly Cloudy
1:15 PM 60.8 °F - 33.8 °F 36% 30.01 in 10.0 mi West 20.7 mph 32.2 mph N/A   Overcast
1:35 PM 60.8 °F - 35.6 °F 39% 30.02 in 10.0 mi West 19.6 mph 25.3 mph N/A   Scattered Clouds
1:55 PM 60.8 °F - 33.8 °F 36% 30.01 in 10.0 mi West 15.0 mph 23.0 mph N/A   Clear
2:14 PM 62.6 °F - 30.2 °F 30% 30.02 in 10.0 mi West 18.4 mph 27.6 mph N/A   Scattered Clouds
2:35 PM 62.6 °F - 30.2 °F 30% 30.02 in 10.0 mi West 16.1 mph 19.6 mph N/A   Clear
2:54 PM 62.6 °F - 28.4 °F 27% 30.01 in 10.0 mi West 16.1 mph 24.2 mph N/A   Clear
3:15 PM 62.6 °F - 28.4 °F 27% 30.02 in 10.0 mi West 16.1 mph 26.5 mph N/A   Scattered Clouds
3:35 PM 64.4 °F - 23.0 °F 21% 30.02 in 10.0 mi West 24.2 mph 34.5 mph N/A   Scattered Clouds
3:54 PM 64.4 °F - 24.8 °F 22% 30.02 in 10.0 mi WSW 19.6 mph 24.2 mph N/A   Clear
4:15 PM 64.4 °F - 24.8 °F 22% 30.03 in 10.0 mi West 21.9 mph 28.8 mph N/A   Clear
4:35 PM 62.6 °F - 23.0 °F 22% 30.04 in 10.0 mi West 20.7 mph 27.6 mph N/A   Clear
4:54 PM 62.6 °F - 23.0 °F 22% 30.05 in 10.0 mi West 21.9 mph 26.5 mph N/A   Clear
5:15 PM 62.6 °F - 23.0 °F 22% 30.06 in 10.0 mi West 18.4 mph 24.2 mph N/A   Clear
5:35 PM 62.6 °F - 23.0 °F 22% 30.07 in 10.0 mi West 12.7 mph 20.7 mph N/A   Clear
5:55 PM 60.8 °F - 24.8 °F 25% 30.08 in 10.0 mi West 12.7 mph 21.9 mph N/A   Clear
6:15 PM 57.2 °F - 23.0 °F 27% 30.09 in 10.0 mi West 10.4 mph - N/A   Clear
6:35 PM 57.2 °F - 24.8 °F 29% 30.10 in 10.0 mi West 9.2 mph - N/A   Clear
6:55 PM 55.4 °F - 24.8 °F 31% 30.11 in 10.0 mi West 5.8 mph - N/A   Clear
7:14 PM 51.8 °F - 26.6 °F 38% 30.12 in 10.0 mi West 8.1 mph - N/A   Clear
7:35 PM 51.8 °F - 26.6 °F 38% 30.14 in 10.0 mi West 6.9 mph - N/A   Clear
7:55 PM 51.8 °F - 26.6 °F 38% 30.15 in 10.0 mi West 6.9 mph - N/A   Clear
8:15 PM 48.2 °F - 26.6 °F 43% 30.15 in 10.0 mi West 6.9 mph - N/A   Clear
8:35 PM 48.2 °F - 28.4 °F 46% 30.16 in 10.0 mi WSW 5.8 mph - N/A   Clear
8:54 PM 46.4 °F 43.5 °F 28.4 °F 50% 30.17 in 10.0 mi West 5.8 mph - N/A   Clear
9:15 PM 46.4 °F 43.5 °F 28.4 °F 50% 30.18 in 10.0 mi WSW 5.8 mph - N/A   Clear
9:35 PM 44.6 °F 42.2 °F 28.4 °F 53% 30.19 in 10.0 mi West 4.6 mph - N/A   Clear
9:55 PM 44.6 °F 41.4 °F 30.2 °F 57% 30.20 in 10.0 mi West 5.8 mph - N/A   Clear
10:15 PM 42.8 °F 39.3 °F 30.2 °F 61% 30.20 in 10.0 mi West 5.8 mph - N/A   Clear
10:34 PM 42.8 °F 41.1 °F 30.2 °F 61% 30.21 in 10.0 mi West 3.5 mph - N/A   Clear
10:55 PM 42.8 °F 40.1 °F 30.2 °F 61% 30.22 in 10.0 mi WSW 4.6 mph - N/A   Clear
11:15 PM 39.2 °F 35.0 °F 30.2 °F 70% 30.23 in 10.0 mi WSW 5.8 mph - N/A   Clear
11:35 PM 42.8 °F 39.3 °F 30.2 °F 61% 30.24 in 10.0 mi WSW 5.8 mph - N/A   Clear
11:55 PM 41.0 °F 39.0 °F 30.2 °F 65% 30.24 in 10.0 mi WSW 3.5 mph - N/A   Clear